[[{"header":{"parameterUnit":"m.s-1","parameterCategory":1,"la1":30.2991,"la2":30.254,"lo1":-89.0895,"lo2":-89.0444,"dy":0.0017,"dx":0.0017,"nx":28,"ny":28,"refTime":"2025-12-30T09:00:00:Z","depth":0,"parameterNumber":2,"parameterNumberName":"U-component_of_WINDS"},"data":[0,0,0,0,0,0,0,0,0,0,0,0,0,0,0,0,0,0,0,0,0,0,0,0,0,0,0,0,0,0,0,0,0,0,0,0,0,0,0,0,0,0,0,0,0,0,0,0,0,0,0,0,0,0,0,0,0,0,1.8408,1.8408,0,1.8403,1.8403,1.8403,1.8394,1.8394,1.8394,1.8394,1.8386,1.8386,1.8386,0,0,0,0,0,0,0,0,0,0,0,0,0,1.841,1.841,1.8408,1.8408,1.8408,1.8403,1.8403,1.8403,1.8394,1.8394,1.8394,1.8394,1.8386,1.8386,1.8386,0,0,0,0,0,0,0,0,0,0,0,0,0,1.8407,1.841,1.8408,1.8403,1.8403,1.8403,1.8403,1.8403,1.8394,1.8394,1.8394,1.8394,1.8386,1.8386,1.8386,1.839,0,0,1.8386,1.8386,0,0,0,0,0,0,0,0,1.8407,1.8407,1.8404,1.8404,1.8403,1.8399,1.8401,1.8399,1.8394,1.8398,1.8394,1.8394,1.8391,1.839,1.839,1.839,1.839,1.8386,1.8386,1.8386,1.8386,0,0,0,0,0,0,0,1.8407,1.8407,1.8406,1.8404,1.8404,1.8401,1.84,1.84,1.8395,1.8397,1.8397,1.8396,1.839,1.839,1.8389,1.839,1.8386,1.8386,1.8386,1.8386,1.8394,1.8394,0,0,0,0,0,0,1.8409,1.8407,1.8406,1.8406,1.8405,1.8401,1.8401,1.8401,1.8395,1.8394,1.8396,1.8396,1.839,1.8389,1.8389,1.8394,1.8386,1.8386,1.8386,1.8394,1.8394,1.8394,0,0,0,0,0,0,1.8409,1.8409,1.8407,1.8407,1.8406,1.8401,1.8402,1.8401,1.84,1.8395,1.8394,1.8397,1.839,1.8389,1.839,1.8394,1.8386,1.8386,1.8393,1.8394,1.8394,1.8404,0,0,0,0,0,0,1.8409,1.8409,1.841,1.8407,1.8406,1.8408,1.8402,1.8401,1.84,1.84,1.8395,1.8394,1.839,1.8391,1.839,1.8393,1.8386,1.8393,1.8394,1.8394,1.8403,1.8404,1.8405,0,0,0,0,0,1.8409,1.8413,1.8411,1.841,1.8408,1.8409,1.8408,1.8404,1.8401,1.8402,1.8399,1.8394,1.8394,1.8391,1.839,1.8393,1.8393,1.8393,1.8394,1.8402,1.8404,1.8405,0,0,0,0,0,0,1.8415,1.8412,1.841,1.8412,1.8411,1.8407,1.8409,1.8406,1.8404,1.8404,1.8398,1.8397,1.8399,1.8396,1.8393,1.8398,1.8393,1.8393,1.8399,1.84,1.8402,1.8402,1.8385,0,0,0,0,0,1.8417,1.8418,1.8415,1.8418,1.8417,1.8413,1.8413,1.841,1.8408,1.8407,1.8404,1.8402,1.8401,1.8401,1.84,1.8403,1.8402,1.8405,1.8406,1.8407,1.8407,1.8409,1.8411,1.8396,1.8396,1.8396,0,0,1.8421,1.8419,1.842,1.8419,1.8418,1.8419,1.8413,1.8414,1.8414,1.8407,1.8408,1.8406,1.8403,1.8406,1.8407,1.8404,1.8412,1.8408,1.8409,1.8408,1.841,1.8411,1.8413,1.8397,1.8397,1.8397,0,0,1.8428,1.8427,1.8429,1.8428,1.8427,1.8424,1.8425,1.8422,1.8421,1.8422,1.8417,1.8418,1.8417,1.8415,1.8414,1.8423,1.8418,1.8423,1.8428,1.843,1.8431,1.8432,1.8435,1.8436,1.8423,1.8423,1.8423,0,1.8432,1.8434,1.8431,1.8432,1.8432,1.8428,1.843,1.8429,1.8427,1.8427,1.8424,1.8424,1.8421,1.8423,1.8426,1.8425,1.8426,1.8422,1.8432,1.8433,1.8433,1.8436,1.8437,1.8424,1.8424,1.8424,1.8423,0,1.8439,1.8441,1.8443,1.8442,1.8442,1.8444,1.8441,1.8442,1.844,1.8437,1.8439,1.8437,1.8436,1.8436,1.8433,1.8438,1.8436,1.8433,1.8427,1.8435,1.8438,1.8439,1.8424,1.8424,1.8424,1.8424,0,0,1.8448,1.8448,1.8448,1.8448,1.8447,1.8448,1.845,1.845,1.845,1.845,1.8451,1.8451,1.8449,1.8448,1.8445,1.8446,1.8453,1.8443,1.8442,1.8444,1.8459,1.8461,1.8462,1.8451,1.8451,1.8451,1.8459,0,1.8455,1.8459,1.8457,1.8461,1.8462,1.8458,1.846,1.8459,1.8458,1.8459,1.8457,1.8457,1.8453,1.8453,1.8455,1.8452,1.8456,1.8452,1.8452,1.8452,1.8452,1.8463,1.8465,1.8473,1.846,1.846,1.846,0,1.8462,1.8463,1.8467,1.8467,1.8467,1.8469,1.8469,1.847,1.847,1.8468,1.8468,1.8465,1.8467,1.8463,1.8465,1.8462,1.8463,1.8462,1.8462,1.8461,1.8456,1.8462,1.8475,1.8476,1.8462,1.8461,1.8461,0,1.8468,1.847,1.8473,1.8474,1.8473,1.8474,1.8474,1.8474,1.8474,1.8474,1.8475,1.8475,1.8475,1.8475,1.8472,1.8469,1.8475,1.847,1.8473,1.8474,1.8474,1.8474,1.8486,1.8475,1.8475,1.8475,1.8475,0,1.8475,1.8478,1.8476,1.8478,1.8481,1.8479,1.8482,1.8481,1.8481,1.8483,1.848,1.8481,1.8478,1.8479,1.8476,1.8479,1.8479,1.8478,1.8477,1.8477,1.8478,1.8477,1.8476,1.8475,1.8475,1.8475,1.8475,0,1.8482,1.8481,1.8484,1.8484,1.8484,1.8486,1.8486,1.8488,1.8487,1.8489,1.8489,1.8487,1.8488,1.8486,1.8487,1.8485,1.8489,1.8487,1.8489,1.8488,1.8491,1.8491,1.8503,1.8504,1.8493,1.8494,1.8494,0,1.8486,1.8488,1.8488,1.849,1.849,1.8492,1.8493,1.8491,1.8492,1.8492,1.8494,1.8495,1.8496,1.8498,1.8496,1.8497,1.8495,1.85,1.8495,1.8496,1.8495,1.8494,1.8494,1.85,1.85,1.85,1.85,0,1.8493,1.8493,1.8494,1.8496,1.8497,1.8499,1.8499,1.8501,1.8499,1.85,1.8502,1.8503,1.8504,1.8505,1.8506,1.8505,1.8502,1.8502,1.8503,1.8503,1.8503,1.8503,1.8491,1.8501,1.8501,1.8501,1.8501,1.8501,1.8498,1.85,1.8501,1.8503,1.8504,1.8505,1.8507,1.8507,1.8508,1.851,1.8509,1.8511,1.8511,1.8512,1.8512,1.8513,1.8511,1.8512,1.8512,1.8512,1.8513,1.8504,1.8513,1.8513,1.8513,1.8513,1.8513,0,1.8504,1.8505,1.8507,1.8509,1.8511,1.851,1.8511,1.8513,1.8515,1.8516,1.8517,1.8519,1.8521,1.852,1.8521,1.8522,1.8521,1.8523,1.8522,1.8522,1.8515,1.8514,1.8524,1.8524,1.8524,1.8524,1.8524,1.8524,1.8508,1.8511,1.8512,1.8516,1.8517,1.8519,1.852,1.8521,1.8522,1.8525,1.8526,1.8526,1.8527,1.8528,1.8529,1.8529,1.8529,1.8531,1.853,1.8523,1.8522,1.8521,1.852,1.8532,1.8532,1.8538,1.8538,1.8538]},{"header":{"parameterUnit":"m.s-1","parameterCategory":1,"la1":30.2991,"la2":30.254,"lo1":-89.0895,"lo2":-89.0444,"dy":0.0017,"dx":0.0017,"nx":28,"ny":28,"refTime":"2025-12-30T09:00:00:Z","depth":0,"parameterNumber":3,"parameterNumberName":"V-component_of_WINDS"},"data":[0,0,0,0,0,0,0,0,0,0,0,0,0,0,0,0,0,0,0,0,0,0,0,0,0,0,0,0,0,0,0,0,0,0,0,0,0,0,0,0,0,0,0,0,0,0,0,0,0,0,0,0,0,0,0,0,0,0,-7.5915,-7.5917,0,-7.6102,-7.6104,-7.6106,-7.6027,-7.6023,-7.6018,-7.6014,-7.6201,-7.621,-7.6219,0,0,0,0,0,0,0,0,0,0,0,0,0,-7.5485,-7.5494,-7.5915,-7.5917,-7.592,-7.6102,-7.6104,-7.6107,-7.6028,-7.6023,-7.6017,-7.6012,-7.6198,-7.6209,-7.622,0,0,0,0,0,0,0,0,0,0,0,0,0,-7.5672,-7.5496,-7.5915,-7.5903,-7.5903,-7.6101,-7.6104,-7.6107,-7.6029,-7.6023,-7.6016,-7.601,-7.6194,-7.6208,-7.6221,-7.644,0,0,-7.6263,-7.6269,0,0,0,0,0,0,0,0,-7.5662,-7.5688,-7.5902,-7.5904,-7.5905,-7.6035,-7.6021,-7.6219,-7.6031,-7.5981,-7.6014,-7.6006,-7.6151,-7.6168,-7.6217,-7.6449,-7.6457,-7.6264,-7.6273,-7.6278,-7.6282,0,0,0,0,0,0,0,-7.5649,-7.5679,-7.5989,-7.5905,-7.5907,-7.5886,-7.5905,-7.6058,-7.6101,-7.5985,-7.598,-7.6003,-7.615,-7.6204,-7.6221,-7.646,-7.6264,-7.6276,-7.6285,-7.629,-7.688,-7.6887,0,0,0,0,0,0,-7.5636,-7.5669,-7.5983,-7.5994,-7.5764,-7.5899,-7.5921,-7.6,-7.6099,-7.6108,-7.6009,-7.5999,-7.6184,-7.6205,-7.6227,-7.649,-7.6278,-7.6291,-7.6299,-7.6873,-7.6882,-7.689,0,0,0,0,0,0,-7.5627,-7.5665,-7.5975,-7.5831,-7.5868,-7.5914,-7.6003,-7.6007,-7.6061,-7.6118,-7.6124,-7.6057,-7.618,-7.6208,-7.6388,-7.6496,-7.6297,-7.631,-7.6864,-7.6875,-7.6886,-7.7019,0,0,0,0,0,0,-7.5615,-7.5662,-7.5747,-7.5833,-7.5877,-7.6135,-7.601,-7.6015,-7.6085,-7.6074,-7.6164,-7.6172,-7.6176,-7.6368,-7.6402,-7.6511,-7.6321,-7.6854,-7.6869,-7.6882,-7.7005,-7.7033,-7.7057,0,0,0,0,0,-7.56,-7.5776,-7.5752,-7.579,-7.5984,-7.6141,-7.6166,-7.6169,-7.6094,-7.6179,-7.6216,-7.6169,-7.6479,-7.6387,-7.6425,-7.6539,-7.6848,-7.6865,-7.6881,-7.6993,-7.7027,-7.7056,0,0,0,0,0,0,-7.57,-7.5787,-7.5761,-7.5971,-7.605,-7.6128,-7.6235,-7.6205,-7.6305,-7.629,-7.6288,-7.6309,-7.6495,-7.6535,-7.6432,-7.6756,-7.6651,-7.6677,-7.6724,-7.6757,-7.6782,-7.6769,-7.6332,0,0,0,0,0,-7.5747,-7.5869,-7.5938,-7.6116,-7.6157,-7.619,-7.6258,-7.6254,-7.6334,-7.6367,-7.6416,-7.6495,-7.661,-7.6685,-7.6794,-7.701,-7.7028,-7.7107,-7.7133,-7.7154,-7.7176,-7.7293,-7.7329,-7.6945,-7.6945,-7.6944,0,0,-7.5844,-7.5907,-7.5984,-7.6138,-7.6198,-7.6323,-7.6218,-7.6355,-7.6447,-7.6387,-7.6561,-7.66,-7.6687,-7.6887,-7.6977,-7.6926,-7.7286,-7.7176,-7.7192,-7.7202,-7.7313,-7.735,-7.7382,-7.6956,-7.6954,-7.6952,0,0,-7.6085,-7.6146,-7.63,-7.6364,-7.6457,-7.6478,-7.6515,-7.6598,-7.6623,-7.6797,-7.6754,-7.6863,-7.7061,-7.7125,-7.7184,-7.745,-7.7411,-7.7485,-7.7621,-7.7735,-7.7765,-7.7792,-7.7886,-7.792,-7.7506,-7.7506,-7.7507,0,-7.6194,-7.6383,-7.6383,-7.6525,-7.6593,-7.6545,-7.6701,-7.6762,-7.6886,-7.6933,-7.6875,-7.7122,-7.7178,-7.7391,-7.7456,-7.7505,-7.7546,-7.7475,-7.7761,-7.7788,-7.7813,-7.7903,-7.7938,-7.7515,-7.7514,-7.7513,-7.7512,0,-7.6511,-7.6643,-7.6756,-7.6879,-7.696,-7.7108,-7.7129,-7.7211,-7.7199,-7.7226,-7.7403,-7.7468,-7.759,-7.7639,-7.7629,-7.7852,-7.7817,-7.776,-7.7655,-7.7858,-7.7942,-7.7977,-7.7527,-7.7524,-7.7521,-7.7519,0,0,-7.6821,-7.6943,-7.6984,-7.7039,-7.7139,-7.724,-7.7384,-7.7505,-7.7575,-7.7661,-7.7782,-7.795,-7.7899,-7.7965,-7.7961,-7.8061,-7.8267,-7.7991,-7.7993,-7.804,-7.8516,-7.8558,-7.8598,-7.8241,-7.8248,-7.8253,-7.8508,0,-7.707,-7.7327,-7.7331,-7.7566,-7.7686,-7.7643,-7.7769,-7.7843,-7.7871,-7.7976,-7.8006,-7.8126,-7.8049,-7.8089,-7.8186,-7.8221,-7.8362,-7.8203,-7.8352,-7.8358,-7.8332,-7.8643,-7.8688,-7.8926,-7.8541,-7.8547,-7.8551,0,-7.7395,-7.7494,-7.7741,-7.7823,-7.7874,-7.7988,-7.8098,-7.82,-7.8282,-7.8295,-7.837,-7.8351,-7.8497,-7.8387,-7.8588,-7.8479,-7.854,-7.8567,-7.8576,-7.859,-7.8467,-7.8665,-7.9002,-7.9038,-7.8603,-7.8599,-7.8595,0,-7.7596,-7.7791,-7.7964,-7.8012,-7.8112,-7.8193,-7.8238,-7.8314,-7.8386,-7.8481,-7.8528,-7.8639,-7.8699,-7.8785,-7.8795,-7.8714,-7.8997,-7.8888,-7.9011,-7.9011,-7.9073,-7.9069,-7.9425,-7.9113,-7.9112,-7.9111,-7.9111,0,-7.7874,-7.8027,-7.8056,-7.8162,-7.8332,-7.8335,-7.8502,-7.854,-7.8608,-7.872,-7.8688,-7.8794,-7.8801,-7.8909,-7.8918,-7.9082,-7.911,-7.9124,-7.9124,-7.9127,-7.9126,-7.9167,-7.9151,-7.9121,-7.9119,-7.9117,-7.9115,0,-7.8128,-7.8153,-7.8339,-7.8419,-7.8443,-7.8564,-7.8632,-7.8732,-7.8757,-7.89,-7.8933,-7.8972,-7.9097,-7.9116,-7.9262,-7.9268,-7.9466,-7.9449,-7.9439,-7.9437,-7.9559,-7.9547,-7.9954,-8.0007,-7.9661,-7.9664,-7.9667,0,-7.8303,-7.842,-7.8513,-7.8587,-7.8637,-7.8755,-7.8829,-7.8835,-7.8913,-7.9016,-7.9104,-7.9226,-7.9325,-7.9526,-7.9567,-7.9678,-7.9664,-7.9799,-7.968,-7.9679,-7.9666,-7.9659,-7.9671,-7.9822,-7.9825,-7.9828,-7.9831,0,-7.8612,-7.8619,-7.8727,-7.8841,-7.893,-7.9018,-7.9102,-7.9164,-7.9181,-7.9269,-7.9398,-7.9475,-7.9625,-7.9746,-7.9857,-7.9901,-7.987,-7.9868,-7.9902,-7.9906,-7.9896,-7.9903,-7.9501,-7.9859,-7.9856,-7.9854,-7.9852,-7.9851,-7.8833,-7.8934,-7.9016,-7.9137,-7.9201,-7.928,-7.9379,-7.9417,-7.9525,-7.9649,-7.9646,-7.9787,-7.9865,-8.0011,-8.0063,-8.0172,-8.0128,-8.0178,-8.0191,-8.0203,-8.0215,-7.9879,-8.0192,-8.0191,-8.0191,-8.019,-8.019,0,-7.914,-7.919,-7.9302,-7.9421,-7.9516,-7.9479,-7.957,-7.9651,-7.9777,-7.9853,-7.9951,-8.0099,-8.0216,-8.0266,-8.0381,-8.0459,-8.0447,-8.0489,-8.0483,-8.0494,-8.0248,-8.0207,-8.0497,-8.0497,-8.0497,-8.0497,-8.0496,-8.0496,-7.9311,-7.9482,-7.9499,-7.97,-7.9748,-7.9888,-7.9943,-8.0015,-8.0076,-8.0243,-8.0341,-8.0373,-8.0439,-8.0559,-8.0664,-8.0676,-8.072,-8.0768,-8.0773,-8.0542,-8.0511,-8.0482,-8.0443,-8.0778,-8.0778,-8.101,-8.1012,-8.1014]}]]